Weather History for Whiteville, NC

Change the Weather History Date:

Friday, December 7, 2012

  Actual Average (KLBT) Record (KLBT)
Temperature  
Mean Temperature 56 °F 48 °F  
Max Temperature 68 °F 59 °F 79 °F (1998)
Min Temperature 46 °F 37 °F 20 °F (2010)
Degree Days  
Heating Degree Days 8 17  
Month to date heating degree days 113  
Since 1 July heating degree days 579  
Cooling Degree Days 0 0  
Month to date cooling degree days 0  
Year to date cooling degree days 1907  
Growing Degree Days 6 (Base 50)    
Moisture  
Dew Point 51 °F    
Average Humidity 83    
Maximum Humidity 98    
Minimum Humidity 68    
Precipitation  
Precipitation 0.00 in 0.10 in 0.31 in (2013)
Month to date precipitation 0.75  
Year to date precipitation 41.38  
Sea Level Pressure  
Sea Level Pressure 30.06 in    
Wind  
Wind Speed 3 mph (NE)    
Max Wind Speed 8 mph    
Max Gust Speed -    
Visibility 9 miles    
Events Rain    
T = Trace of Precipitation, MM = Missing Value Source: NWS Daily Summary

Daily Weather History Graph

Daily Weather History Graph

Search for Another Location

Airport:

Trip Planner

Search our weather history database for the weather conditions in past years. The results will help you decide how hot, cold, wet, or windy it might be!

Date:

Astronomy

Dec. 07, 2012 Rise Set
Actual Time 7:08 AM EST 5:04 PM EST
Civil Twilight 6:40 AM EST 5:32 PM EST
Nautical Twilight 6:09 AM EST 6:03 PM EST
Astronomical Twilight 5:38 AM EST 6:34 PM EST
Moon 12:40 AM EST (12/7) 12:47 PM EST (12/7)
Length of Visible Light 10h 52m
Length of Day
9h 56m
Last Quarter, 39% of the Moon is Illuminated
Dec 7
Last Quarter
Dec 13
New
Dec 20
First Quarter
Dec 28
Full
Jan 4
Last Quarter

Hourly Weather History & Observations

Time (EST) Temp. Windchill Dew Point Humidity Pressure Visibility Wind Dir Wind Speed Gust Speed Precip Events Conditions
12:15 AM 46.4 °F 45.2 °F 40.3 °F 79% 30.16 in 10.0 mi NNE 3.5 mph - N/A   Clear
12:35 AM 46.4 °F 45.2 °F 40.5 °F 80% 30.16 in 10.0 mi NNE 3.5 mph - N/A   Clear
12:55 AM 46.4 °F 45.2 °F 41.0 °F 81% 30.15 in 10.0 mi NNE 3.5 mph - N/A   Clear
1:15 AM 46.2 °F 45.0 °F 40.8 °F 81% 30.15 in 10.0 mi North 3.5 mph - N/A   Scattered Clouds
1:35 AM 46.0 °F 43.9 °F 41.0 °F 83% 30.15 in 10.0 mi North 4.6 mph - N/A   Mostly Cloudy
1:55 AM 46.0 °F 44.8 °F 41.0 °F 83% 30.15 in 10.0 mi NNE 3.5 mph - N/A   Mostly Cloudy
2:15 AM 46.4 °F 44.3 °F 41.0 °F 81% 30.14 in 10.0 mi NNE 4.6 mph - N/A   Mostly Cloudy
2:35 AM 46.4 °F 45.2 °F 41.0 °F 81% 30.15 in 10.0 mi NNE 3.5 mph - N/A   Mostly Cloudy
2:55 AM 46.4 °F 45.2 °F 41.0 °F 81% 30.14 in 10.0 mi North 3.5 mph - N/A   Mostly Cloudy
3:15 AM 46.4 °F 45.2 °F 41.0 °F 81% 30.14 in 10.0 mi NNE 3.5 mph - N/A   Mostly Cloudy
3:35 AM 46.6 °F - 41.2 °F 81% 30.13 in 10.0 mi NNE 5.8 mph - N/A   Overcast
3:55 AM 46.6 °F - 41.2 °F 81% 30.13 in 10.0 mi NE 4.6 mph - N/A   Overcast
4:15 AM 46.6 °F - 41.2 °F 81% 30.13 in 10.0 mi NNE 3.5 mph - N/A   Overcast
4:35 AM 46.6 °F - 41.2 °F 81% 30.12 in 10.0 mi NNE 3.5 mph - N/A   Mostly Cloudy
4:55 AM 46.8 °F - 41.5 °F 82% 30.13 in 10.0 mi North 3.5 mph - N/A   Overcast
5:15 AM 46.8 °F - 41.5 °F 82% 30.12 in 10.0 mi NNE 4.6 mph - N/A   Overcast
5:35 AM 46.8 °F - 41.5 °F 82% 30.12 in 10.0 mi NNE 3.5 mph - N/A   Mostly Cloudy
5:55 AM 46.4 °F 44.3 °F 41.7 °F 84% 30.12 in 10.0 mi NE 4.6 mph - N/A   Mostly Cloudy
6:15 AM 46.6 °F - 41.9 °F 84% 30.12 in 10.0 mi Calm Calm - N/A   Mostly Cloudy
6:35 AM 46.8 °F - 42.1 °F 84% 30.13 in 10.0 mi North 4.6 mph - N/A   Light Drizzle
6:55 AM 46.8 °F - 42.3 °F 84% 30.13 in 10.0 mi Calm Calm - N/A Rain Light Rain
7:15 AM 46.9 °F - 42.8 °F 86% 30.12 in 10.0 mi NNE 3.5 mph - N/A   Mostly Cloudy
7:35 AM 46.9 °F - 42.8 °F 86% 30.13 in 10.0 mi Calm Calm - N/A   Mostly Cloudy
7:55 AM 47.3 °F - 43.0 °F 85% 30.13 in 10.0 mi North 3.5 mph - N/A   Mostly Cloudy
8:15 AM 47.3 °F - 43.0 °F 85% 30.11 in 10.0 mi North 3.5 mph - N/A   Scattered Clouds
8:35 AM 47.8 °F - 43.5 °F 85% 30.12 in 10.0 mi NNE 4.6 mph - N/A   Mostly Cloudy
8:55 AM 48.6 °F - 43.9 °F 84% 30.13 in 10.0 mi NE 6.9 mph - N/A   Overcast
9:15 AM 49.3 °F - 44.6 °F 84% 30.13 in 10.0 mi NNE 4.6 mph - N/A   Mostly Cloudy
9:35 AM 50.2 °F - 45.1 °F 83% 30.13 in 10.0 mi North 4.6 mph - N/A   Overcast
9:55 AM 50.9 °F - 45.5 °F 82% 30.13 in 10.0 mi North 4.6 mph - N/A   Mostly Cloudy
10:15 AM 52.0 °F - 46.8 °F 82% 30.12 in 10.0 mi NE 4.6 mph - N/A   Scattered Clouds
10:35 AM 54.1 °F - 47.5 °F 78% 30.11 in 10.0 mi NE 3.5 mph - N/A   Scattered Clouds
10:55 AM 56.5 °F - 48.4 °F 74% 30.10 in 10.0 mi NNE 6.9 mph - N/A   Scattered Clouds
11:15 AM 58.5 °F - 50.0 °F 73% 30.09 in 10.0 mi NE 4.6 mph - N/A   Mostly Cloudy
11:35 AM 59.9 °F - 51.3 °F 73% 30.07 in 10.0 mi NE 3.5 mph - N/A   Mostly Cloudy
11:55 AM 61.5 °F - 52.3 °F 72% 30.06 in 10.0 mi East 4.6 mph - N/A   Mostly Cloudy
12:15 PM 62.4 °F - 53.4 °F 72% 30.06 in 10.0 mi NE 3.5 mph - N/A   Mostly Cloudy
12:35 PM 64.6 °F - 53.8 °F 68% 30.04 in 10.0 mi NE 6.9 mph - N/A   Scattered Clouds
12:55 PM 64.2 °F - 54.3 °F 70% 30.03 in 10.0 mi NNE 3.5 mph - N/A   Clear
1:15 PM 65.7 °F - 55.2 °F 69% 30.01 in 10.0 mi NE 6.9 mph - N/A   Clear
1:35 PM 65.5 °F - 55.8 °F 71% 30.01 in 10.0 mi East 6.9 mph - N/A   Scattered Clouds
1:55 PM 66.6 °F - 56.3 °F 69% 30.00 in 10.0 mi ENE 5.8 mph - N/A   Scattered Clouds
2:15 PM 65.8 °F - 56.5 °F 72% 30.00 in 10.0 mi East 6.9 mph - N/A   Scattered Clouds
2:35 PM 66.7 °F - 56.8 °F 70% 30.00 in 10.0 mi East 8.1 mph - N/A   Mostly Cloudy
2:55 PM 66.2 °F - 57.6 °F 74% 30.00 in 10.0 mi ENE 5.8 mph - N/A   Mostly Cloudy
3:15 PM 67.8 °F - 58.1 °F 71% 29.99 in 10.0 mi NE 5.8 mph - N/A   Mostly Cloudy
3:35 PM 66.7 °F - 58.5 °F 75% 29.99 in 10.0 mi NE 4.6 mph - N/A   Overcast
3:55 PM 66.2 °F - 59.0 °F 78% 29.99 in 10.0 mi East 3.5 mph - N/A   Overcast
4:15 PM 65.8 °F - 59.4 °F 80% 29.99 in 10.0 mi Calm Calm - N/A   Mostly Cloudy
4:35 PM 65.7 °F - 59.9 °F 82% 29.99 in 10.0 mi NE 4.6 mph - N/A   Overcast
4:55 PM 65.3 °F - 60.1 °F 83% 29.99 in 10.0 mi Calm Calm - N/A   Mostly Cloudy
5:15 PM 64.9 °F - 60.3 °F 85% 29.99 in 10.0 mi Calm Calm - N/A   Mostly Cloudy
5:35 PM 63.9 °F - 60.1 °F 87% 29.98 in 10.0 mi Calm Calm - N/A   Mostly Cloudy
5:55 PM 63.5 °F - 60.3 °F 89% 29.98 in 10.0 mi Calm Calm - N/A   Mostly Cloudy
6:15 PM 63.7 °F - 60.6 °F 90% 29.99 in 10.0 mi Calm Calm - N/A   Mostly Cloudy
6:35 PM 63.0 °F - 60.4 °F 91% 29.99 in 10.0 mi Calm Calm - N/A   Mostly Cloudy
6:55 PM 62.8 °F - 60.4 °F 92% 29.99 in 10.0 mi Calm Calm - N/A   Mostly Cloudy
7:15 PM 62.8 °F - 60.8 °F 93% 29.99 in 10.0 mi Calm Calm - N/A   Mostly Cloudy
7:35 PM 62.8 °F - 60.8 °F 93% 30.00 in 10.0 mi Calm Calm - N/A   Overcast
7:55 PM 61.9 °F - 60.3 °F 94% 30.00 in 10.0 mi West 3.5 mph - N/A   Overcast
8:15 PM 61.7 °F - 60.3 °F 95% 30.00 in 5.0 mi Calm Calm - N/A   Overcast
8:35 PM 61.0 °F - 59.9 °F 96% 30.00 in 10.0 mi Calm Calm - N/A   Overcast
8:55 PM 60.8 °F - 59.4 °F 95% 30.00 in 7.0 mi Calm Calm - N/A   Overcast
9:15 PM 60.1 °F - 59.0 °F 96% 30.00 in 10.0 mi Calm Calm - N/A   Overcast
9:35 PM 59.9 °F - 58.5 °F 95% 30.00 in 10.0 mi Calm Calm - N/A   Overcast
9:55 PM 59.9 °F - 58.3 °F 94% 30.00 in 5.0 mi Calm Calm - N/A   Overcast
10:15 PM 59.4 °F - 58.1 °F 96% 30.00 in 4.0 mi Calm Calm - N/A   Overcast
10:35 PM 59.0 °F - 58.1 °F 97% 30.00 in 3.0 mi Calm Calm - N/A   Overcast
10:55 PM 58.6 °F - 57.7 °F 97% 30.00 in 4.0 mi Calm Calm - N/A   Overcast
11:15 PM 58.5 °F - 57.9 °F 98% 30.00 in 4.0 mi Calm Calm - N/A   Overcast
11:35 PM 58.3 °F - 57.6 °F 97% 30.00 in 5.0 mi Calm Calm - N/A   Overcast
11:55 PM 58.1 °F - 57.4 °F 97% 30.00 in 4.0 mi Calm Calm - N/A   Overcast